TimeAKST,TemperatureF,Dew PointF,Humidity,Sea Level PressureIn,VisibilityMPH,Wind Direction,Wind SpeedMPH,Gust SpeedMPH,PrecipitationIn,Events,Conditions,WindDirDegrees,DateUTC
12:53 AM,-33.0,-38.2,76,30.01,10.0,ENE,9.2,-,N/A,,Clear,60,2014-02-13 09:53:00
1:53 AM,-27.9,-34.1,73,30.02,5.0,NE,11.5,-,N/A,,Mostly Cloudy,50,2014-02-13 10:53:00
2:53 AM,-27.9,-34.1,73,30.01,8.0,NE,10.4,-,N/A,,Mostly Cloudy,50,2014-02-13 11:53:00
3:53 AM,-27.9,-34.1,73,30.01,10.0,NE,12.7,-,N/A,,Partly Cloudy,50,2014-02-13 12:53:00
4:53 AM,-27.9,-34.1,73,30.01,10.0,NE,11.5,-,N/A,,Mostly Cloudy,50,2014-02-13 13:53:00
5:53 AM,-27.9,-33.0,77,30.01,10.0,NE,10.4,-,N/A,,Mostly Cloudy,50,2014-02-13 14:53:00
6:53 AM,-27.9,-34.1,73,30.01,10.0,NE,8.1,-,N/A,,Overcast,50,2014-02-13 15:53:00
7:53 AM,-27.0,-33.0,73,30.01,7.0,NE,8.1,-,N/A,,Overcast,40,2014-02-13 16:53:00
8:53 AM,-26.0,-32.1,73,30.01,7.0,NNE,9.2,-,N/A,,Overcast,30,2014-02-13 17:53:00
9:53 AM,-26.0,-32.1,73,30.00,8.0,NE,8.1,-,N/A,,Mostly Cloudy,50,2014-02-13 18:53:00
10:53 AM,-27.0,-33.0,73,30.01,9.0,NE,8.1,-,N/A,,Clear,50,2014-02-13 19:53:00
11:53 AM,-26.0,-32.1,73,30.01,9.0,NE,9.2,-,N/A,,Clear,50,2014-02-13 20:53:00
12:53 PM,-27.0,-33.0,73,30.01,9.0,NE,10.4,-,N/A,,Clear,50,2014-02-13 21:53:00
1:53 PM,-27.0,-33.0,73,30.00,9.0,NE,9.2,-,N/A,,Clear,50,2014-02-13 22:53:00
2:53 PM,-26.0,-32.1,73,30.00,10.0,NE,10.4,-,N/A,,Mostly Cloudy,50,2014-02-13 23:53:00
3:53 PM,-26.0,-32.1,73,30.00,9.0,ENE,6.9,-,N/A,,Mostly Cloudy,60,2014-02-14 00:53:00
4:06 PM,-25.6,-32.8,69,29.99,3.0,NE,8.1,-,N/A,,Haze,50,2014-02-14 01:06:00
4:13 PM,-25.6,-31.0,76,29.99,3.0,NE,8.1,-,N/A,,Haze,50,2014-02-14 01:13:00
4:53 PM,-25.1,-31.0,74,29.99,3.0,NE,9.2,-,0.00,,Mostly Cloudy,40,2014-02-14 01:53:00
5:53 PM,-26.0,-32.1,73,30.00,8.0,NE,10.4,-,N/A,,Scattered Clouds,50,2014-02-14 02:53:00
6:53 PM,-27.0,-33.0,73,30.00,10.0,NE,12.7,-,N/A,,Clear,50,2014-02-14 03:53:00
7:53 PM,-27.9,-33.0,77,30.00,7.0,NE,11.5,-,N/A,,Clear,50,2014-02-14 04:53:00
8:53 PM,-27.9,-34.1,73,30.01,7.0,NE,10.4,-,N/A,,Scattered Clouds,50,2014-02-14 05:53:00
9:53 PM,-27.0,-33.0,73,30.01,7.0,NE,11.5,-,N/A,,Overcast,50,2014-02-14 06:53:00
10:50 PM,-25.6,-32.8,69,30.00,9.0,ENE,9.2,-,N/A,,Overcast,60,2014-02-14 07:50:00
10:53 PM,-26.0,-32.1,73,30.01,9.0,NE,9.2,-,N/A,,Overcast,50,2014-02-14 07:53:00
11:53 PM,-25.1,-31.0,74,30.02,10.0,ENE,8.1,-,N/A,,Overcast,70,2014-02-14 08:53:00